Juanda, Indonesia

5:03 PM WIB on September 20, 2017 (GMT +0700)
Juanda

Weather History for WARR - December, 2012

Change the Weather History Date:

Monday, December 3, 2012

  Actual Average Record
Temperature  
Mean Temperature 83 °F -  
Max Temperature 91 °F - - ()
Min Temperature 75 °F - - ()
Cooling Degree Days 18    
Growing Degree Days 33 (Base 50)    
Moisture  
Dew Point 74 °F    
Average Humidity 74    
Maximum Humidity 94    
Minimum Humidity 55    
Precipitation  
Precipitation 0.00 in - - ()
Sea Level Pressure  
Sea Level Pressure 29.78 in    
Wind  
Wind Speed 4 mph ()    
Max Wind Speed 12 mph    
Max Gust Speed -    
Visibility 5.2 miles    
Events Thunderstorm    
T = Trace of Precipitation, MM = Missing Value Source: Averaged Metar Reports

Daily Weather History Graph

Daily Weather History Graph

Search for Another Location

Airport or City:

Trip Planner

Search our weather history database for the weather conditions in past years. The results will help you decide how hot, cold, wet, or windy it might be!

Date:

Astronomy

Dec. 03, 2012 Rise Set
Actual Time 5:02 AM WIB 5:34 PM WIB
Civil Twilight 4:40 AM WIB 5:57 PM WIB
Nautical Twilight 4:13 AM WIB 6:23 PM WIB
Astronomical Twilight 3:47 AM WIB 6:50 PM WIB
Moon 9:14 PM WIB (12/3) 8:34 AM WIB (12/3)
Length of Visible Light 13h 16m
Length of Day
12h 31m
Waning Gibbous, 82% of the Moon is Illuminated
Dec 3
Waning Gibbous
Dec 6
Last Quarter
Dec 13
New
Dec 20
First Quarter
Dec 28
Full

Hourly Weather History & Observations

Time (WIB) Temp. Heat Index Dew Point Humidity Pressure Visibility Wind Dir Wind Speed Gust Speed Precip Events Conditions
12:30 AM 77.0 °F - 73.4 °F 89% 29.80 in 1.6 mi West 3.5 mph - N/A   Haze
1:00 AM 77.0 °F - 75.2 °F 94% 29.77 in 1.6 mi SW 4.6 mph - N/A   Haze
2:00 AM 77.0 °F - 73.4 °F 89% 29.77 in 1.2 mi WSW 2.3 mph - N/A   Haze
5:00 AM 75.2 °F - 73.4 °F 94% 29.80 in 1.9 mi West 4.6 mph - N/A   Haze
6:30 AM 77.0 °F - 75.2 °F 94% 29.80 in 1.9 mi Variable 2.3 mph - N/A   Haze
7:00 AM 80.6 °F 87.1 °F 77.0 °F 89% 29.80 in 2.5 mi South 3.5 mph - N/A   Haze
7:30 AM 80.6 °F 86.2 °F 75.2 °F 84% 29.83 in 2.8 mi SW 3.5 mph - N/A   Haze
8:30 AM 86.0 °F 93.4 °F 73.4 °F 66% 29.83 in 6.2 mi SE 3.5 mph - N/A   Partly Cloudy
9:00 AM 87.8 °F 95.6 °F 73.4 °F 62% 29.83 in 6.2 mi South 4.6 mph - N/A   Partly Cloudy
10:00 AM 89.6 °F 96.2 °F 71.6 °F 55% 29.80 in 6.2 mi SE 5.8 mph - N/A   Partly Cloudy
10:30 AM 91.4 °F 100.1 °F 73.4 °F 55% 29.80 in 6.2 mi Variable 4.6 mph - N/A   Partly Cloudy
11:00 AM 89.6 °F 99.8 °F 75.2 °F 62% 29.77 in 6.2 mi SE 8.1 mph - N/A   Partly Cloudy
11:30 AM 91.4 °F 102.5 °F 75.2 °F 59% 29.77 in 6.2 mi SE 6.9 mph - N/A   Partly Cloudy
12:00 PM 91.4 °F 102.5 °F 75.2 °F 59% 29.77 in 6.2 mi North - - N/A   Partly Cloudy
12:30 PM 87.8 °F 97.6 °F 75.2 °F 66% 29.74 in 6.2 mi NE 6.9 mph - N/A   Partly Cloudy
1:00 PM 89.6 °F 99.8 °F 75.2 °F 62% 29.74 in 6.2 mi Variable 3.5 mph - N/A   Partly Cloudy
1:30 PM 86.0 °F 95.1 °F 75.2 °F 70% 29.74 in 6.2 mi West 9.2 mph - N/A Thunderstorm Thunderstorm
3:00 PM 89.6 °F 98.2 °F 73.4 °F 59% 29.71 in 6.2 mi NNW 6.9 mph - N/A   Partly Cloudy
3:30 PM 89.6 °F 96.2 °F 71.6 °F 55% 29.71 in 6.2 mi NNW 6.9 mph - N/A   Partly Cloudy
4:00 PM 86.0 °F 93.4 °F 73.4 °F 66% 29.71 in 6.2 mi WNW 11.5 mph - N/A   Partly Cloudy
5:00 PM 86.0 °F 93.4 °F 73.4 °F 66% 29.74 in 6.2 mi WSW 4.6 mph - N/A   Scattered Clouds
5:30 PM 84.2 °F 90.9 °F 73.4 °F 70% 29.77 in 6.2 mi WSW 4.6 mph - N/A Thunderstorm Thunderstorm
6:30 PM 80.6 °F 85.4 °F 73.4 °F 79% 29.77 in 6.2 mi South 8.1 mph - N/A Thunderstorm Thunderstorm
7:00 PM 80.6 °F 85.4 °F 73.4 °F 79% 29.77 in 6.2 mi Variable 2.3 mph - N/A   Partly Cloudy
8:00 PM 80.6 °F 85.4 °F 73.4 °F 79% 29.83 in 6.2 mi West 4.6 mph - N/A   Partly Cloudy
8:30 PM 80.6 °F 85.4 °F 73.4 °F 79% 29.83 in 6.2 mi West 8.1 mph - N/A   Scattered Clouds
9:00 PM 80.6 °F 85.4 °F 73.4 °F 79% 29.83 in 6.2 mi WSW 9.2 mph - N/A   Scattered Clouds
10:00 PM 78.8 °F - 73.4 °F 83% 29.80 in 6.2 mi WNW 4.6 mph - N/A   Partly Cloudy
10:30 PM 78.8 °F - 73.4 °F 83% 29.80 in 6.2 mi SSW 3.5 mph - N/A   Scattered Clouds
11:00 PM 78.8 °F - 75.2 °F 89% 29.80 in 6.2 mi WSW 3.5 mph - N/A   Partly Cloudy